FW1075 Bellerose NY US current weather conditions

sailwx.info

Wind from 045 at 1 knots gusting 5

Air temperature 29.4° C
Dewpoint 17.6° C

Last reported at 2020-Jul-14 22:01 UTC.
Time now 2020-Jul-14 23:16 UTC

Location: N 40°44' W 073°43'.
View on Google Maps.

See reports from other nearby stations

  
Tides and Currents Weather Stations Pressure Air Temp Water Temp Dewpoint Dewpoint Depression Visibility Wind Speed Wind Dir Waves Ship Positions
date/time (UTC)wind fromknots sea level pressurealtimeterstation pressurevisibilityair tempwater tempwave heightnotes
2020-Jul-14 22:01 045 1 gusting 5 29.4
2020-Jul-14 21:51 019 0 gusting 4 30.0
2020-Jul-14 21:41 002 29.4
2020-Jul-14 21:31 045 0 gusting 5 30.6
2020-Jul-14 21:21 047 1 gusting 5 30.0
2020-Jul-14 21:11 026 0 gusting 4 31.1
2020-Jul-14 21:01 329 1 gusting 4 30.6
2020-Jul-14 20:51 059 1 gusting 5 30.6
2020-Jul-14 20:41 067 2 gusting 6 30.6
2020-Jul-14 20:31 023 2 gusting 4 31.7
2020-Jul-14 20:21 028 1 gusting 6 31.1
2020-Jul-14 20:11 083 0 gusting 3 30.6
2020-Jul-14 20:01 309 0 gusting 1 31.1
2020-Jul-14 19:41 241 0 gusting 2 30.6
2020-Jul-14 19:31 059 2 gusting 7 29.4
2020-Jul-14 19:21 025 2 gusting 5 30.0
2020-Jul-14 19:11 319 1 gusting 4 31.1
2020-Jul-14 19:01 033 1 gusting 6 31.7
2020-Jul-14 18:51 319 1 gusting 4 31.7
2020-Jul-14 18:41 050 2 gusting 6 31.7
2020-Jul-14 18:31 036 3 gusting 5 31.1
2020-Jul-14 18:21 028 2 gusting 6 31.7
2020-Jul-14 18:11 345 0 gusting 3 31.7
2020-Jul-14 18:01 045 2 gusting 5 31.7
2020-Jul-14 17:51 040 3 gusting 7 30.6
2020-Jul-14 17:41 040 1 gusting 6 31.1
2020-Jul-14 17:31 130 1 gusting 5 30.0
2020-Jul-14 17:21 057 2 gusting 5 30.6
2020-Jul-14 15:01
2020-Jul-14 14:01
2020-Jul-14 13:01 003 25.0
2020-Jul-14 12:01
2020-Jul-14 11:01
2020-Jul-14 10:01
2020-Jul-14 09:01 090 21.7
2020-Jul-14 08:01 270 22.2
2020-Jul-14 07:41 22.2
2020-Jul-14 07:31 22.8
2020-Jul-14 07:21 22.8
2020-Jul-14 07:11 22.8
2020-Jul-14 07:01 22.8
2020-Jul-14 06:51
2020-Jul-14 06:41
2020-Jul-14 06:31
2020-Jul-14 06:21
2020-Jul-14 06:11
2020-Jul-14 06:01
2020-Jul-14 05:51
2020-Jul-14 05:41
2020-Jul-14 05:31
2020-Jul-14 05:21
2020-Jul-14 05:11 032 25.0
2020-Jul-14 05:01 293 25.0
2020-Jul-14 04:51 023 25.6
2020-Jul-14 04:41 225 25.6
2020-Jul-14 04:31 202 25.6
2020-Jul-14 04:21 296 25.6
2020-Jul-14 04:11 225 25.6
2020-Jul-14 04:01 293 26.1
2020-Jul-14 03:51 315 26.1
2020-Jul-14 03:41 045 26.1
2020-Jul-14 03:31 023 26.1
2020-Jul-14 03:21 247 26.1
2020-Jul-14 03:11 270 25.6
2020-Jul-14 03:01 113 25.6
2020-Jul-14 02:51 270 26.1
2020-Jul-14 02:41 270 26.1
2020-Jul-14 02:31 338 26.1
2020-Jul-14 02:21 270 26.1
2020-Jul-14 02:11 113 26.1
2020-Jul-14 02:02 225 26.1
2020-Jul-14 01:51 023 26.1
2020-Jul-14 01:41 270 26.1
2020-Jul-14 01:31 270 26.7
2020-Jul-14 01:21 270 26.7
2020-Jul-14 01:11 248 27.2
2020-Jul-14 01:01 270 27.8
2020-Jul-14 00:51 270 27.8
2020-Jul-14 00:41 113 27.8
2020-Jul-14 00:31 293 28.3
2020-Jul-14 00:21 360 28.9
2020-Jul-14 00:11 225 28.9
2020-Jul-14 00:01 045 28.9
2020-Jul-13 23:52 158 28.9
2020-Jul-13 23:41 172 29.4
2020-Jul-13 23:31 250 29.4
2020-Jul-13 23:21 294 0 gusting 2 30.0
2020-Jul-13 23:11 311 0 gusting 3 30.0
2020-Jul-13 23:01 004 0 gusting 2 30.0
2020-Jul-13 22:51 322 0 gusting 2 30.6
2020-Jul-13 22:41 298 0 gusting 2 30.6
2020-Jul-13 22:31 311 0 gusting 3 30.6
2020-Jul-13 22:21 262 0 gusting 2 30.6
2020-Jul-13 22:11 320 0 gusting 3 30.6
2020-Jul-13 21:55 305 0 gusting 2 31.1
2020-Jul-13 21:41 308 1 gusting 4 31.1
2020-Jul-13 21:31 249 1 gusting 3 31.1
2020-Jul-13 21:21 265 0 gusting 2 31.7
2020-Jul-13 21:11 291 1 gusting 6 31.7
2020-Jul-13 21:01 285 0 gusting 4 32.2
2020-Jul-13 20:51 229 0 gusting 4 32.2
2020-Jul-13 20:41 247 2 gusting 7 32.8
2020-Jul-13 20:31 213 3 gusting 7 33.3
2020-Jul-13 20:21 208 2 gusting 6 33.9
2020-Jul-13 20:11 339 0 gusting 4 33.3
2020-Jul-13 20:01 285 1 gusting 4 32.2
2020-Jul-13 19:51 332 0 gusting 5 32.8
2020-Jul-13 19:41 247 2 gusting 6 33.9
2020-Jul-13 19:31 230 0 gusting 3 33.9
2020-Jul-13 19:21 268 0 gusting 4 32.8
2020-Jul-13 19:11 265 0 gusting 5 32.8
2020-Jul-13 19:01 226 1 gusting 6 33.3
2020-Jul-13 18:51 110 0 gusting 2 33.9
2020-Jul-13 18:41 267 0 gusting 4 32.8
2020-Jul-13 18:31 295 0 gusting 4 32.8
2020-Jul-13 18:21 298 0 gusting 2 32.8
2020-Jul-13 18:11 228 0 gusting 3 33.3
2020-Jul-13 18:01 294 1 gusting 4 32.8
2020-Jul-13 17:51 258 0 gusting 4 32.8
2020-Jul-13 17:41 215 0 gusting 3 32.8
2020-Jul-13 17:31 124 0 gusting 4 32.2
2020-Jul-13 17:21 243 1 gusting 4 32.8
2020-Jul-13 17:11 262 0 gusting 4 31.7
2020-Jul-13 17:01 287 1 gusting 5 32.2
2020-Jul-13 16:51 228 1 gusting 4 31.7
2020-Jul-13 16:41 057 0 gusting 3 32.2
2020-Jul-13 16:31 277 0 gusting 2 32.2
2020-Jul-13 16:21 268 0 gusting 3 31.1
2020-Jul-13 16:11 257 0 gusting 3 30.6
2020-Jul-13 16:01 273 0 gusting 5 30.0
2020-Jul-13 15:51 310 2 gusting 6 30.6
2020-Jul-13 15:41 273 1 gusting 6 31.1
2020-Jul-13 15:31 254 2 gusting 5 31.1
2020-Jul-13 15:21 232 4 gusting 6 30.6
2020-Jul-13 15:11 250 1 gusting 4 30.6
2020-Jul-13 15:01 224 1 gusting 4 30.6
2020-Jul-13 14:51 254 0 gusting 2 29.4
2020-Jul-13 14:41 355 0 gusting 2 29.4
2020-Jul-13 14:31 292 28.9
2020-Jul-13 14:21 199 0 gusting 3 28.3
2020-Jul-13 14:11 335 0 gusting 4 27.8
2020-Jul-13 14:01 270 27.8
2020-Jul-13 13:51 169 27.8
2020-Jul-13 13:41 247 27.8
2020-Jul-13 13:31 352 27.2
2020-Jul-13 13:21 305 0 gusting 3 26.7
2020-Jul-13 13:11 319 26.7
2020-Jul-13 13:01 047 0 gusting 2 26.1
2020-Jul-13 12:51 296 26.1
2020-Jul-13 12:41 241 0 gusting 4 25.6
2020-Jul-13 12:31 315 25.0
2020-Jul-13 12:21 264 25.0
2020-Jul-13 12:11 193 23.9
2020-Jul-13 12:01 248 23.9
2020-Jul-13 11:51 270 23.3
2020-Jul-13 11:41 248 23.3
2020-Jul-13 11:31 337 22.8
2020-Jul-13 11:21 270 22.8
2020-Jul-13 11:11 248 22.8
2020-Jul-13 11:01 315 22.2
2020-Jul-13 10:51 135 22.2
2020-Jul-13 10:41 113 21.7
2020-Jul-13 10:31 180 21.7
2020-Jul-13 10:21 113 21.7
2020-Jul-13 10:11 158 21.7
2020-Jul-13 10:01 158 21.7
2020-Jul-13 09:51 113 21.7
2020-Jul-13 09:41 135 21.7
2020-Jul-13 09:31 135 21.7
2020-Jul-13 09:21 315 21.7
2020-Jul-13 09:11 315 22.2
2020-Jul-13 09:01 315 22.2
2020-Jul-13 08:51 338 22.2
2020-Jul-13 08:41 225 22.2
2020-Jul-13 08:31 360 22.2
2020-Jul-13 08:21 270 22.2
2020-Jul-13 08:11 270 22.2
2020-Jul-13 08:01 270 22.2
2020-Jul-13 07:51 068 22.2
2020-Jul-13 07:41 225 22.8
2020-Jul-13 07:31 293 22.8
2020-Jul-13 07:21 238 23.3
2020-Jul-13 07:11 135 23.9
2020-Jul-13 07:01 315 24.4
2020-Jul-13 06:51 270 25.0
2020-Jul-13 06:41 213 25.0
2020-Jul-13 06:31 202 25.0
2020-Jul-13 06:21 315 25.0
2020-Jul-13 06:11 113 25.0
2020-Jul-13 06:01 270 25.0
2020-Jul-13 05:51 292 25.0
2020-Jul-13 05:41 203 25.0
2020-Jul-13 05:31 083 25.0
2020-Jul-13 05:21 090 25.0
2020-Jul-13 05:11 270 25.0
2020-Jul-13 05:01 270 25.0
2020-Jul-13 04:51 270 25.6
2020-Jul-13 04:41 180 25.6
2020-Jul-13 04:31 270 25.6
2020-Jul-13 04:21 293 25.6
2020-Jul-13 04:11 045 26.1
2020-Jul-13 04:01 023 26.1
2020-Jul-13 03:51 023 26.7
2020-Jul-13 03:41 023 26.7
2020-Jul-13 03:31 270 26.7
2020-Jul-13 03:21 045 27.2
2020-Jul-13 03:11 247 27.8
2020-Jul-13 03:01 231 1 gusting 5 27.8
2020-Jul-13 02:51 180 27.2
2020-Jul-13 02:41 090 27.8
2020-Jul-13 02:31 270 27.8
2020-Jul-13 02:21 237 0 gusting 4 28.3
2020-Jul-13 02:11 259 1 gusting 5 28.3
2020-Jul-13 02:01 274 2 gusting 6 28.3
2020-Jul-13 01:51 247 1 gusting 4 28.3
2020-Jul-13 01:41 231 1 gusting 4 28.3
2020-Jul-13 01:31 226 1 gusting 6 28.9
2020-Jul-13 01:21 251 0 gusting 4 28.9
2020-Jul-13 01:11 273 1 gusting 6 28.9
2020-Jul-13 01:01 261 2 gusting 6 28.9
2020-Jul-13 00:51 267 1 gusting 4 28.9
2020-Jul-13 00:41 254 1 gusting 5 28.9
2020-Jul-13 00:31 203 2 gusting 5 28.9
2020-Jul-13 00:21 019 1 gusting 5 28.9
2020-Jul-13 00:11 232 28.9
2020-Jul-13 00:01 244 0 gusting 4 28.9
2020-Jul-12 23:51 227 0 gusting 3 29.4
2020-Jul-12 23:41 210 0 gusting 3 29.4
2020-Jul-12 23:31 217 1 gusting 5 30.0
2020-Jul-12 23:21 200 1 gusting 4 30.0
2020-Jul-12 23:11 276 1 gusting 5 30.0
2020-Jul-12 23:01 063 1 gusting 3 30.6